[[{"header":{"parameterUnit":"m.s-1","parameterCategory":1,"la1":30.2992,"la2":30.254,"lo1":-89.0895,"lo2":-89.0443,"dy":0.0025,"dx":0.0025,"nx":19,"ny":19,"refTime":"2026-03-17T03:00:00:Z","depth":0,"parameterNumber":2,"parameterNumberName":"U-component_of_WINDS"},"data":[0,0,0,-0.3199,-0.3199,-0.3187,-0.3186,-0.3175,-0.3175,0,0,0,0,0,0,0,0,0,0,0,-0.3207,-0.3207,-0.3199,-0.3199,-0.3187,-0.3186,-0.3175,-0.3175,0,0,0,0,0,0,0,0,0,0,0,-0.3207,-0.3207,-0.3207,-0.3199,-0.3187,-0.3186,-0.3175,-0.3183,0,0,0,0,0,0,0,0,0,0,-0.3194,-0.3205,-0.3207,-0.3207,-0.3199,-0.3187,-0.3186,-0.3183,-0.3182,-0.3183,0,-0.3185,0,-0.318,-0.3175,-0.3175,0,0,0,-0.3196,-0.3205,-0.3199,-0.3207,-0.3199,-0.3187,-0.3191,-0.3183,-0.3182,-0.3182,-0.3185,-0.3185,-0.318,-0.3175,-0.3175,-0.3189,-0.3189,0,0,-0.3197,-0.3206,-0.3199,-0.3198,-0.3201,-0.3192,-0.3191,-0.3182,-0.3186,-0.3185,-0.3184,-0.318,-0.3175,-0.3175,-0.3189,-0.3189,0,0,0,-0.3201,-0.3207,-0.32,-0.3199,-0.3196,-0.3192,-0.3191,-0.3186,-0.3183,-0.3184,-0.318,-0.3175,-0.3175,-0.3189,-0.3189,-0.3208,0,0,0,-0.3201,-0.3209,-0.3201,-0.3206,-0.3197,-0.3191,-0.3195,-0.3184,-0.3183,-0.318,-0.3175,-0.3174,-0.3188,-0.3189,-0.3207,-0.3216,0,0,0,-0.3206,-0.321,-0.3209,-0.3207,-0.3202,-0.3191,-0.3188,-0.3183,-0.318,-0.3175,-0.3174,-0.3188,-0.3189,-0.3206,-0.3214,-0.3222,0,0,0,-0.3214,-0.3227,-0.321,-0.3221,-0.3202,-0.3203,-0.3188,-0.3188,-0.3186,-0.3175,-0.3188,-0.3189,-0.3206,-0.3213,-0.3221,-0.323,-0.3235,0,0,-0.3235,-0.323,-0.3236,-0.322,-0.3227,-0.3204,-0.3213,-0.3202,-0.3193,-0.3191,-0.3191,-0.3207,-0.3214,-0.3222,-0.3258,-0.3262,0,0,0,-0.3245,-0.325,-0.325,-0.3248,-0.324,-0.3233,-0.3219,-0.3215,-0.3213,-0.3194,-0.3212,-0.3216,-0.322,-0.3224,-0.3227,-0.323,-0.3191,-0.3191,-0.3191,-0.3289,-0.3276,-0.3285,-0.327,-0.3269,-0.3254,-0.3251,-0.3243,-0.3231,-0.3235,-0.3234,-0.3258,-0.3263,-0.3266,-0.3268,-0.3238,-0.3238,-0.3238,-0.3238,-0.3318,-0.3323,-0.3305,-0.3308,-0.3293,-0.3295,-0.3281,-0.3272,-0.3271,-0.3258,-0.3261,-0.3248,-0.327,-0.3272,-0.3239,-0.3239,-0.3239,-0.3239,-0.3239,-0.3346,-0.3346,-0.334,-0.3335,-0.3332,-0.3316,-0.3316,-0.3303,-0.3291,-0.3294,-0.3291,-0.3291,-0.3289,-0.3293,-0.3293,-0.3294,-0.3294,-0.3294,-0.3294,-0.3377,-0.337,-0.3371,-0.3362,-0.3359,-0.3352,-0.3336,-0.3332,-0.3324,-0.3315,-0.3315,-0.3302,-0.3275,-0.3268,-0.3295,-0.3295,-0.3295,-0.3294,-0.3294,-0.3412,-0.3402,-0.3404,-0.3401,-0.3388,-0.3386,-0.3369,-0.3361,-0.3356,-0.3356,-0.3342,-0.3324,-0.3317,-0.3314,-0.3309,-0.3345,-0.3345,-0.3345,-0.3345,-0.3436,-0.3431,-0.343,-0.3424,-0.3418,-0.3402,-0.3404,-0.3391,-0.3376,-0.3371,-0.3364,-0.3355,-0.3353,-0.3348,-0.3344,-0.3339,-0.3382,-0.3382,-0.3382,-0.3456,-0.345,-0.3455,-0.344,-0.3429,-0.3419,-0.342,-0.3414,-0.3395,-0.3383,-0.3367,-0.3366,-0.3352,-0.3348,-0.3337,-0.3332,-0.3322,0,0]},{"header":{"parameterUnit":"m.s-1","parameterCategory":1,"la1":30.2992,"la2":30.254,"lo1":-89.0895,"lo2":-89.0443,"dy":0.0025,"dx":0.0025,"nx":19,"ny":19,"refTime":"2026-03-17T03:00:00:Z","depth":0,"parameterNumber":3,"parameterNumberName":"V-component_of_WINDS"},"data":[0,0,0,-4.5501,-4.5504,-4.5664,-4.5664,-4.5871,-4.5873,0,0,0,0,0,0,0,0,0,0,0,-4.5457,-4.5459,-4.55,-4.5505,-4.5664,-4.5664,-4.5871,-4.5873,0,0,0,0,0,0,0,0,0,0,0,-4.5457,-4.5458,-4.546,-4.5505,-4.5664,-4.5664,-4.587,-4.5748,0,0,0,0,0,0,0,0,0,0,-4.5593,-4.5557,-4.5458,-4.5461,-4.5506,-4.5663,-4.5665,-4.5742,-4.5756,-4.5801,0,-4.5843,0,-4.5862,-4.5887,-4.5888,0,0,0,-4.5501,-4.5546,-4.5586,-4.5461,-4.5508,-4.5663,-4.5591,-4.575,-4.5765,-4.5819,-4.5846,-4.5854,-4.5865,-4.5888,-4.5889,-4.6163,-4.6165,0,0,-4.5492,-4.5488,-4.5575,-4.5596,-4.5574,-4.5586,-4.5596,-4.5759,-4.5788,-4.5847,-4.5859,-4.5868,-4.589,-4.5891,-4.6162,-4.6164,0,0,0,-4.5469,-4.5482,-4.5517,-4.5588,-4.5616,-4.559,-4.5602,-4.5781,-4.5793,-4.5861,-4.5871,-4.5891,-4.5894,-4.616,-4.6162,-4.623,0,0,0,-4.5464,-4.5468,-4.5514,-4.5512,-4.5613,-4.5701,-4.562,-4.5782,-4.58,-4.587,-4.5891,-4.5896,-4.6159,-4.6161,-4.6224,-4.6262,0,0,0,-4.5445,-4.5466,-4.5491,-4.5512,-4.558,-4.5699,-4.572,-4.5786,-4.5807,-4.5888,-4.5896,-4.6158,-4.6161,-4.622,-4.6254,-4.6332,0,0,0,-4.5424,-4.5548,-4.5492,-4.5633,-4.5579,-4.574,-4.5719,-4.5838,-4.5916,-4.5892,-4.6159,-4.6162,-4.6218,-4.6249,-4.6327,-4.6396,-4.6425,0,0,-4.5577,-4.5566,-4.565,-4.5604,-4.5774,-4.5716,-4.5895,-4.5969,-4.598,-4.6101,-4.6108,-4.6226,-4.6253,-4.6331,-4.6589,-4.6612,0,0,0,-4.5697,-4.5757,-4.5803,-4.5877,-4.5939,-4.5993,-4.6041,-4.6069,-4.6172,-4.6042,-4.6276,-4.6292,-4.6338,-4.6371,-4.639,-4.6429,-4.6178,-4.6177,-4.6177,-4.5906,-4.5915,-4.6053,-4.6081,-4.6154,-4.6202,-4.6261,-4.6306,-4.6292,-4.6347,-4.6383,-4.6539,-4.6578,-4.6592,-4.6633,-4.6421,-4.6421,-4.6422,-4.6422,-4.613,-4.6216,-4.6196,-4.6323,-4.6331,-4.6437,-4.6488,-4.6475,-4.6573,-4.6513,-4.6553,-4.6486,-4.6617,-4.6653,-4.6427,-4.6426,-4.6425,-4.6425,-4.6425,-4.6267,-4.631,-4.6342,-4.6451,-4.6533,-4.6556,-4.6652,-4.6656,-4.6659,-4.6699,-4.6736,-4.6735,-4.6733,-4.6717,-4.6718,-4.6718,-4.6719,-4.6719,-4.6719,-4.6396,-4.6431,-4.6512,-4.6588,-4.6636,-4.6699,-4.6749,-4.6796,-4.6848,-4.6842,-4.6843,-4.6823,-4.6629,-4.658,-4.6728,-4.6726,-4.6725,-4.6724,-4.6724,-4.6618,-4.6569,-4.6695,-4.6743,-4.6831,-4.6912,-4.6915,-4.701,-4.7049,-4.7096,-4.7068,-4.6925,-4.6912,-4.6897,-4.6856,-4.7066,-4.7066,-4.7066,-4.7066,-4.6733,-4.6728,-4.6857,-4.6934,-4.7009,-4.7025,-4.7165,-4.7204,-4.7236,-4.7261,-4.7231,-4.7177,-4.7161,-4.7159,-4.7137,-4.7099,-4.7367,-4.7367,-4.7367,-4.6869,-4.6872,-4.6991,-4.7024,-4.7093,-4.7151,-4.7282,-4.7369,-4.7396,-4.738,-4.7279,-4.7267,-4.718,-4.7152,-4.7132,-4.7099,-4.7029,0,0]}]]